#Datum;Uhrzeit;WR;Pac;DaySum;Status;WR;Pac;DaySum;Status;Pdc1;Udc;Temp;WR;Pac;DaySum;Status;Pdc1;Udc;Temp;WR;Pac;DaySum;Status;Pdc1;Udc;Temp;WR;Pac;DaySum;Status;Pdc1;Pdc2;Udc1;Udc2;Temp;WR;Pac;DaySum;Status;Pdc1;Pdc2;Udc1;Udc2;Temp;WR;Pac;DaySum;Status;Pdc1;Udc;Temp;WR;Pac;DaySum;Status;Pdc1;Udc;Temp;WR;Pac;DaySum;Status;Pdc1;Udc;Temp
16.02.20;23:55:00;1;346;20842;0;2;0;11294;0;0;0;0;3;0;7280;0;0;0;0;4;0;10644;0;0;0;0;5;0;27246;0;0;0;0;0;0;6;0;20419;0;0;0;0;0;0;7;0;16273;0;0;0;0;8;0;16143;0;0;0;0;9;0;8815;0;0;0;0
16.02.20;23:50:00;1;298;20816;0;2;0;11294;0;0;0;0;3;0;7280;0;0;0;0;4;0;10644;0;0;0;0;5;0;27246;0;0;0;0;0;0;6;0;20419;0;0;0;0;0;0;7;0;16273;0;0;0;0;8;0;16143;0;0;0;0;9;0;8815;0;0;0;0
16.02.20;23:45:00;1;307;20791;0;2;0;11294;0;0;0;0;3;0;7280;0;0;0;0;4;0;10644;0;0;0;0;5;0;27246;0;0;0;0;0;0;6;0;20419;0;0;0;0;0;0;7;0;16273;0;0;0;0;8;0;16143;0;0;0;0;9;0;8815;0;0;0;0
16.02.20;23:40:00;1;256;20768;0;2;0;11294;0;0;0;0;3;0;7280;0;0;0;0;4;0;10644;0;0;0;0;5;0;27246;0;0;0;0;0;0;6;0;20419;0;0;0;0;0;0;7;0;16273;0;0;0;0;8;0;16143;0;0;0;0;9;0;8815;0;0;0;0
16.02.20;23:35:00;1;256;20746;0;2;0;11294;0;0;0;0;3;0;7280;0;0;0;0;4;0;10644;0;0;0;0;5;0;27246;0;0;0;0;0;0;6;0;20419;0;0;0;0;0;0;7;0;16273;0;0;0;0;8;0;16143;0;0;0;0;9;0;8815;0;0;0;0
16.02.20;23:30:00;1;266;20725;0;2;0;11294;0;0;0;0;3;0;7280;0;0;0;0;4;0;10644;0;0;0;0;5;0;27246;0;0;0;0;0;0;6;0;20419;0;0;0;0;0;0;7;0;16273;0;0;0;0;8;0;16143;0;0;0;0;9;0;8815;0;0;0;0
16.02.20;23:25:00;1;304;20702;0;2;0;11294;0;0;0;0;3;0;7280;0;0;0;0;4;0;10644;0;0;0;0;5;0;27246;0;0;0;0;0;0;6;0;20419;0;0;0;0;0;0;7;0;16273;0;0;0;0;8;0;16143;0;0;0;0;9;0;8815;0;0;0;0
16.02.20;23:20:00;1;257;20678;0;2;0;11294;0;0;0;0;3;0;7280;0;0;0;0;4;0;10644;0;0;0;0;5;0;27246;0;0;0;0;0;0;6;0;20419;0;0;0;0;0;0;7;0;16273;0;0;0;0;8;0;16143;0;0;0;0;9;0;8815;0;0;0;0
16.02.20;23:15:00;1;596;20656;0;2;0;11294;0;0;0;0;3;0;7280;0;0;0;0;4;0;10644;0;0;0;0;5;0;27246;0;0;0;0;0;0;6;0;20419;0;0;0;0;0;0;7;0;16273;0;0;0;0;8;0;16143;0;0;0;0;9;0;8815;0;0;0;0
16.02.20;23:10:00;1;288;20612;0;2;0;11294;0;0;0;0;3;0;7280;0;0;0;0;4;0;10644;0;0;0;0;5;0;27246;0;0;0;0;0;0;6;0;20419;0;0;0;0;0;0;7;0;16273;0;0;0;0;8;0;16143;0;0;0;0;9;0;8815;0;0;0;0
16.02.20;23:07:00;1;302;20602;0;2;0;11294;0;0;0;0;3;0;7280;0;0;0;0;4;0;10644;0;0;0;0;5;0;27246;0;0;0;0;0;0;6;0;20419;0;0;0;0;0;0;7;0;16273;0;0;0;0;8;0;16143;0;0;0;0;9;0;8815;0;0;0;0
16.02.20;23:00:00;1;302;20562;0;2;0;11294;0;0;0;0;3;0;7280;0;0;0;0;4;0;10644;0;0;0;0;5;0;27246;0;0;0;0;0;0;6;0;20419;0;0;0;0;0;0;7;0;16273;0;0;0;0;8;0;16143;0;0;0;0;9;0;8815;0;0;0;0
16.02.20;22:55:00;1;308;20536;0;2;0;11294;0;0;0;0;3;0;7280;0;0;0;0;4;0;10644;0;0;0;0;5;0;27246;2;0;0;0;0;0;6;0;20419;2;0;0;0;0;0;7;0;16273;0;0;0;0;8;0;16143;0;0;0;0;9;0;8815;0;0;0;0
16.02.20;22:50:00;1;287;20510;0;2;0;11294;0;0;0;0;3;0;7280;0;0;0;0;4;0;10644;0;0;0;0;5;0;27246;2;0;0;0;0;0;6;0;20419;2;0;0;0;0;0;7;0;16273;0;0;0;0;8;0;16143;0;0;0;0;9;0;8815;0;0;0;0
16.02.20;22:45:00;1;343;20485;0;2;0;11294;0;0;0;0;3;0;7280;0;0;0;0;4;0;10644;0;0;0;0;5;0;27246;2;0;0;0;0;0;6;0;20419;2;0;0;0;0;0;7;0;16273;0;0;0;0;8;0;16143;0;0;0;0;9;0;8815;0;0;0;0
16.02.20;22:40:00;1;371;20456;0;2;0;11294;0;0;0;0;3;0;7280;0;0;0;0;4;0;10644;0;0;0;0;5;0;27246;2;0;0;0;0;0;6;0;20419;2;0;0;0;0;0;7;0;16273;0;0;0;0;8;0;16143;0;0;0;0;9;0;8815;0;0;0;0
16.02.20;22:35:00;1;403;20425;0;2;0;11294;0;0;0;0;3;0;7280;0;0;0;0;4;0;10644;0;0;0;0;5;0;27246;2;0;0;0;0;0;6;0;20419;2;0;0;0;0;0;7;0;16273;0;0;0;0;8;0;16143;0;0;0;0;9;0;8815;0;0;0;0
16.02.20;22:30:00;1;524;20390;0;2;0;11294;0;0;0;0;3;0;7280;0;0;0;0;4;0;10644;0;0;0;0;5;0;27246;2;0;0;0;0;0;6;0;20419;2;0;0;0;0;0;7;0;16273;0;0;0;0;8;0;16143;0;0;0;0;9;0;8815;0;0;0;0
16.02.20;22:25:00;1;563;20346;0;2;0;11294;0;0;0;0;3;0;7280;0;0;0;0;4;0;10644;0;0;0;0;5;0;27246;2;0;0;0;0;0;6;0;20419;2;0;0;0;0;0;7;0;16273;0;0;0;0;8;0;16143;0;0;0;0;9;0;8815;0;0;0;0
16.02.20;22:20:00;1;555;20298;0;2;0;11294;0;0;0;0;3;0;7280;0;0;0;0;4;0;10644;0;0;0;0;5;0;27246;2;0;0;0;0;0;6;0;20419;2;0;0;0;0;0;7;0;16273;0;0;0;0;8;0;16143;0;0;0;0;9;0;8815;0;0;0;0
16.02.20;22:15:00;1;520;20251;0;2;0;11294;0;0;0;0;3;0;7280;0;0;0;0;4;0;10644;0;0;0;0;5;0;27246;2;0;0;0;0;0;6;0;20419;2;0;0;0;0;0;7;0;16273;0;0;0;0;8;0;16143;0;0;0;0;9;0;8815;0;0;0;0
16.02.20;22:10:00;1;464;20208;0;2;0;11294;0;0;0;0;3;0;7280;0;0;0;0;4;0;10644;0;0;0;0;5;0;27246;2;0;0;0;0;0;6;0;20419;2;0;0;0;0;0;7;0;16273;0;0;0;0;8;0;16143;0;0;0;0;9;0;8815;0;0;0;0
16.02.20;22:05:00;1;445;20169;0;2;0;11294;0;0;0;0;3;0;7280;0;0;0;0;4;0;10644;0;0;0;0;5;0;27246;2;0;0;0;0;0;6;0;20419;2;0;0;0;0;0;7;0;16273;0;0;0;0;8;0;16143;0;0;0;0;9;0;8815;0;0;0;0
16.02.20;22:00:00;1;448;20132;0;2;0;11294;0;0;0;0;3;0;7280;0;0;0;0;4;0;10644;0;0;0;0;5;0;27246;2;0;0;0;0;0;6;0;20419;2;0;0;0;0;0;7;0;16273;0;0;0;0;8;0;16143;0;0;0;0;9;0;8815;0;0;0;0
16.02.20;21:55:00;1;495;20094;0;2;0;11294;0;0;0;0;3;0;7280;0;0;0;0;4;0;10644;0;0;0;0;5;0;27246;2;0;0;0;0;0;6;0;20419;2;0;0;0;0;0;7;0;16273;0;0;0;0;8;0;16143;0;0;0;0;9;0;8815;0;0;0;0
16.02.20;21:50:00;1;2404;20026;0;2;0;11294;0;0;0;0;3;0;7280;0;0;0;0;4;0;10644;0;0;0;0;5;0;27246;2;0;0;0;0;0;6;0;20419;2;0;0;0;0;0;7;0;16273;0;0;0;0;8;0;16143;0;0;0;0;9;0;8815;0;0;0;0
16.02.20;21:45:00;1;2401;19826;0;2;0;11294;0;0;0;0;3;0;7280;0;0;0;0;4;0;10644;0;0;0;0;5;0;27246;2;0;0;0;0;0;6;0;20419;2;0;0;0;0;0;7;0;16273;0;0;0;0;8;0;16143;0;0;0;0;9;0;8815;0;0;0;0
16.02.20;21:40:00;1;2169;19625;0;2;0;11294;0;0;0;0;3;0;7280;0;0;0;0;4;0;10644;0;0;0;0;5;0;27246;2;0;0;0;0;0;6;0;20419;2;0;0;0;0;0;7;0;16273;0;0;0;0;8;0;16143;0;0;0;0;9;0;8815;0;0;0;0
16.02.20;21:35:00;1;1278;19468;0;2;0;11294;0;0;0;0;3;0;7280;0;0;0;0;4;0;10644;0;0;0;0;5;0;27246;2;0;0;0;0;0;6;0;20419;2;0;0;0;0;0;7;0;16273;0;0;0;0;8;0;16143;0;0;0;0;9;0;8815;0;0;0;0
16.02.20;21:30:00;1;1044;19327;0;2;0;11294;0;0;0;0;3;0;7280;0;0;0;0;4;0;10644;0;0;0;0;5;0;27246;2;0;0;0;0;0;6;0;20419;2;0;0;0;0;0;7;0;16273;0;0;0;0;8;0;16143;0;0;0;0;9;0;8815;0;0;0;0
16.02.20;21:25:00;1;602;19258;0;2;0;11294;0;0;0;0;3;0;7280;0;0;0;0;4;0;10644;0;0;0;0;5;0;27246;2;0;0;0;0;0;6;0;20419;2;0;0;0;0;0;7;0;16273;0;0;0;0;8;0;16143;0;0;0;0;9;0;8815;0;0;0;0
16.02.20;21:20:00;1;812;19208;0;2;0;11294;0;0;0;0;3;0;7280;0;0;0;0;4;0;10644;0;0;0;0;5;0;27246;2;0;0;0;0;0;6;0;20419;2;0;0;0;0;0;7;0;16273;0;0;0;0;8;0;16143;0;0;0;0;9;0;8815;0;0;0;0
16.02.20;21:15:00;1;2402;19116;0;2;0;11294;0;0;0;0;3;0;7280;0;0;0;0;4;0;10644;0;0;0;0;5;0;27246;2;0;0;0;0;0;6;0;20419;2;0;0;0;0;0;7;0;16273;0;0;0;0;8;0;16143;0;0;0;0;9;0;8815;0;0;0;0
16.02.20;21:10:00;1;511;18936;0;2;0;11294;0;0;0;0;3;0;7280;0;0;0;0;4;0;10644;0;0;0;0;5;0;27246;2;0;0;0;0;0;6;0;20419;2;0;0;0;0;0;7;0;16273;0;0;0;0;8;0;16143;0;0;0;0;9;0;8815;0;0;0;0
16.02.20;21:05:00;1;1869;18893;0;2;0;11294;0;0;0;0;3;0;7280;0;0;0;0;4;0;10644;0;0;0;0;5;0;27246;2;0;0;0;0;0;6;0;20419;2;0;0;0;0;0;7;0;16273;0;0;0;0;8;0;16143;0;0;0;0;9;0;8815;0;0;0;0
16.02.20;21:00:00;1;1564;18712;0;2;0;11294;0;0;0;0;3;0;7280;0;0;0;0;4;0;10644;0;0;0;0;5;0;27246;2;0;0;0;0;0;6;0;20419;2;0;0;0;0;0;7;0;16273;0;0;0;0;8;0;16143;0;0;0;0;9;0;8815;0;0;0;0
16.02.20;20:55:00;1;2925;18563;0;2;0;11294;0;0;0;0;3;0;7280;0;0;0;0;4;0;10644;0;0;0;0;5;0;27246;2;0;0;0;0;0;6;0;20419;2;0;0;0;0;0;7;0;16273;0;0;0;0;8;0;16143;0;0;0;0;9;0;8815;0;0;0;0
16.02.20;20:50:00;1;1908;18323;0;2;0;11294;0;0;0;0;3;0;7280;0;0;0;0;4;0;10644;0;0;0;0;5;0;27246;2;0;0;0;0;0;6;0;20419;2;0;0;0;0;0;7;0;16273;0;0;0;0;8;0;16143;0;0;0;0;9;0;8815;0;0;0;0
16.02.20;20:45:00;1;654;18188;0;2;0;11294;0;0;0;0;3;0;7280;0;0;0;0;4;0;10644;0;0;0;0;5;0;27246;2;0;0;0;0;0;6;0;20419;2;0;0;0;0;0;7;0;16273;0;0;0;0;8;0;16143;0;0;0;0;9;0;8815;0;0;0;0
16.02.20;20:40:00;1;635;18134;0;2;0;11294;0;0;0;0;3;0;7280;0;0;0;0;4;0;10644;0;0;0;0;5;0;27246;2;0;0;0;0;0;6;0;20419;2;0;0;0;0;0;7;0;16273;0;0;0;0;8;0;16143;0;0;0;0;9;0;8815;0;0;0;0
16.02.20;20:35:00;1;678;18081;0;2;0;11294;0;0;0;0;3;0;7280;0;0;0;0;4;0;10644;0;0;0;0;5;0;27246;2;0;0;0;0;0;6;0;20419;2;0;0;0;0;0;7;0;16273;0;0;0;0;8;0;16143;0;0;0;0;9;0;8815;0;0;0;0
16.02.20;20:30:00;1;587;18030;0;2;0;11294;0;0;0;0;3;0;7280;0;0;0;0;4;0;10644;0;0;0;0;5;0;27246;2;0;0;0;0;0;6;0;20419;2;0;0;0;0;0;7;0;16273;0;0;0;0;8;0;16143;0;0;0;0;9;0;8815;0;0;0;0
16.02.20;20:25:00;1;589;17981;0;2;0;11294;0;0;0;0;3;0;7280;0;0;0;0;4;0;10644;0;0;0;0;5;0;27246;2;0;0;0;0;0;6;0;20419;2;0;0;0;0;0;7;0;16273;0;0;0;0;8;0;16143;0;0;0;0;9;0;8815;0;0;0;0
16.02.20;20:20:00;1;686;17932;0;2;0;11294;0;0;0;0;3;0;7280;0;0;0;0;4;0;10644;0;0;0;0;5;0;27246;2;0;0;0;0;0;6;0;20419;2;0;0;0;0;0;7;0;16273;0;0;0;0;8;0;16143;0;0;0;0;9;0;8815;0;0;0;0
16.02.20;20:15:00;1;556;17880;0;2;0;11294;0;0;0;0;3;0;7280;0;0;0;0;4;0;10644;0;0;0;0;5;0;27246;2;0;0;0;0;0;6;0;20419;2;0;0;0;0;0;7;0;16273;0;0;0;0;8;0;16143;0;0;0;0;9;0;8815;0;0;0;0
16.02.20;20:10:00;1;525;17835;0;2;0;11294;0;0;0;0;3;0;7280;0;0;0;0;4;0;10644;0;0;0;0;5;0;27246;2;0;0;0;0;0;6;0;20419;2;0;0;0;0;0;7;0;16273;0;0;0;0;8;0;16143;0;0;0;0;9;0;8815;0;0;0;0
16.02.20;20:05:00;1;541;17790;0;2;0;11294;0;0;0;0;3;0;7280;0;0;0;0;4;0;10644;0;0;0;0;5;0;27246;2;0;0;0;0;0;6;0;20419;2;0;0;0;0;0;7;0;16273;0;0;0;0;8;0;16143;0;0;0;0;9;0;8815;0;0;0;0
16.02.20;20:00:00;1;564;17745;0;2;0;11294;0;0;0;0;3;0;7280;0;0;0;0;4;0;10644;0;0;0;0;5;0;27246;2;0;0;0;0;0;6;0;20419;2;0;0;0;0;0;7;0;16273;0;0;0;0;8;0;16143;0;0;0;0;9;0;8815;0;0;0;0
16.02.20;19:55:00;1;591;17698;0;2;0;11294;0;0;0;0;3;0;7280;0;0;0;0;4;0;10644;0;0;0;0;5;0;27246;2;0;0;0;0;0;6;0;20419;2;0;0;0;0;0;7;0;16273;0;0;0;0;8;0;16143;0;0;0;0;9;0;8815;0;0;0;0
16.02.20;19:50:00;1;627;17648;0;2;0;11294;0;0;0;0;3;0;7280;0;0;0;0;4;0;10644;0;0;0;0;5;0;27246;2;0;0;0;0;0;6;0;20419;2;0;0;0;0;0;7;0;16273;0;0;0;0;8;0;16143;0;0;0;0;9;0;8815;0;0;0;0
16.02.20;19:45:00;1;758;17597;0;2;0;11294;0;0;0;0;3;0;7280;0;0;0;0;4;0;10644;0;0;0;0;5;0;27246;2;0;0;0;0;0;6;0;20419;2;0;0;0;0;0;7;0;16273;0;0;0;0;8;0;16143;0;0;0;0;9;0;8815;0;0;0;0
16.02.20;19:40:00;1;565;17526;0;2;0;11294;0;0;0;0;3;0;7280;0;0;0;0;4;0;10644;0;0;0;0;5;0;27246;2;0;0;0;0;0;6;0;20419;2;0;0;0;0;0;7;0;16273;0;0;0;0;8;0;16143;0;0;0;0;9;0;8815;0;0;0;0
16.02.20;19:35:00;1;615;17479;0;2;0;11294;0;0;0;0;3;0;7280;0;0;0;0;4;0;10644;0;0;0;0;5;0;27246;2;0;0;0;0;0;6;0;20419;2;0;0;0;0;0;7;0;16273;0;0;0;0;8;0;16143;0;0;0;0;9;0;8815;0;0;0;0
16.02.20;19:30:00;1;1366;17423;0;2;0;11294;0;0;0;0;3;0;7280;0;0;0;0;4;0;10644;0;0;0;0;5;0;27246;2;0;0;0;0;0;6;0;20419;2;0;0;0;0;0;7;0;16273;0;0;0;0;8;0;16143;0;0;0;0;9;0;8815;0;0;0;0
16.02.20;19:25:00;1;1432;17311;0;2;0;11294;0;0;0;0;3;0;7280;0;0;0;0;4;0;10644;0;0;0;0;5;0;27246;2;0;0;0;0;0;6;0;20419;2;0;0;0;0;0;7;0;16273;0;0;0;0;8;0;16143;0;0;0;0;9;0;8815;0;0;0;0
16.02.20;19:20:00;1;1183;17193;0;2;0;11294;0;0;0;0;3;0;7280;0;0;0;0;4;0;10644;0;0;0;0;5;0;27246;2;0;0;0;0;0;6;0;20419;2;0;0;0;0;0;7;0;16273;0;0;0;0;8;0;16143;0;0;0;0;9;0;8815;0;0;0;0
16.02.20;19:15:00;1;960;17099;0;2;0;11294;0;0;0;0;3;0;7280;0;0;0;0;4;0;10644;0;0;0;0;5;0;27246;2;0;0;0;0;0;6;0;20419;2;0;0;0;0;0;7;0;16273;0;0;0;0;8;0;16143;0;0;0;0;9;0;8815;0;0;0;0
16.02.20;19:10:00;1;1395;17007;0;2;0;11294;0;0;0;0;3;0;7280;0;0;0;0;4;0;10644;0;0;0;0;5;0;27246;2;0;0;0;0;0;6;0;20419;2;0;0;0;0;0;7;0;16273;0;0;0;0;8;0;16143;0;0;0;0;9;0;8815;0;0;0;0
16.02.20;19:05:00;1;1394;16891;0;2;0;11294;0;0;0;0;3;0;7280;0;0;0;0;4;0;10644;0;0;0;0;5;0;27246;2;0;0;0;0;0;6;0;20419;2;0;0;0;0;0;7;0;16273;0;0;0;0;8;0;16143;0;0;0;0;9;0;8815;0;0;0;0
16.02.20;19:00:00;1;788;16817;0;2;0;11294;0;0;0;0;3;0;7280;0;0;0;0;4;0;10644;0;0;0;0;5;0;27246;2;0;0;0;0;0;6;0;20419;2;0;0;0;0;0;7;0;16273;0;0;0;0;8;0;16143;0;0;0;0;9;0;8815;0;0;0;0
16.02.20;18:55:00;1;877;16760;0;2;0;11294;0;0;0;0;3;0;7280;0;0;0;0;4;0;10644;0;0;0;0;5;0;27246;2;0;0;0;0;0;6;0;20419;2;0;0;0;0;0;7;0;16273;0;0;0;0;8;0;16143;0;0;0;0;9;0;8815;0;0;0;0
16.02.20;18:50:00;1;1138;16683;0;2;0;11294;0;0;0;0;3;0;7280;0;0;0;0;4;0;10644;0;0;0;0;5;0;27246;2;0;0;0;0;0;6;0;20419;2;0;0;0;0;0;7;0;16273;0;0;0;0;8;0;16143;0;0;0;0;9;0;8815;0;0;0;0
16.02.20;18:45:00;1;681;16588;0;2;0;11294;0;0;0;0;3;0;7280;0;0;0;0;4;0;10644;0;0;0;0;5;0;27246;2;0;0;0;0;0;6;0;20419;2;0;0;0;0;0;7;0;16273;0;0;0;0;8;0;16143;0;0;0;0;9;0;8815;0;0;0;0
16.02.20;18:40:00;1;321;16539;0;2;0;11294;0;0;0;0;3;0;7280;0;0;0;0;4;0;10644;0;0;0;0;5;0;27246;2;0;0;0;0;0;6;0;20419;2;0;0;0;0;0;7;0;16273;0;0;0;0;8;0;16143;0;0;0;0;9;0;8815;0;0;0;0
16.02.20;18:35:00;1;258;16512;0;2;0;11294;0;0;0;0;3;0;7280;0;0;0;0;4;0;10644;0;0;0;0;5;0;27246;2;0;0;0;0;0;6;0;20419;2;0;0;0;0;0;7;0;16273;0;0;0;0;8;0;16143;0;0;0;0;9;0;8815;0;0;0;0
16.02.20;18:30:00;1;258;16491;0;2;0;11294;0;0;0;0;3;0;7280;0;0;0;0;4;0;10644;0;0;0;0;5;0;27246;2;0;0;0;0;0;6;0;20419;2;0;0;0;0;0;7;0;16273;0;0;0;0;8;0;16143;0;0;0;0;9;0;8815;0;0;0;0
16.02.20;18:25:00;1;270;16469;0;2;0;11294;0;0;0;0;3;0;7280;0;0;0;0;4;0;10644;0;0;0;0;5;0;27246;2;0;0;0;0;0;6;0;20419;2;0;0;0;0;0;7;0;16273;0;0;0;0;8;0;16143;0;0;0;0;9;0;8815;0;0;0;0
16.02.20;18:20:00;1;301;16446;0;2;0;11294;0;0;0;0;3;0;7280;0;0;0;0;4;0;10644;0;0;0;0;5;0;27246;2;0;0;0;0;0;6;0;20419;2;0;0;0;0;0;7;0;16273;0;0;0;0;8;0;16143;0;0;0;0;9;0;8815;0;0;0;0
16.02.20;18:15:00;1;319;16421;0;2;0;11294;0;0;0;0;3;0;7280;0;0;0;0;4;0;10644;0;0;0;0;5;0;27246;2;0;0;0;0;0;6;0;20419;2;0;0;0;0;0;7;0;16273;0;0;0;0;8;0;16143;0;0;0;0;9;0;8815;0;0;0;0
16.02.20;18:10:00;1;288;16393;0;2;0;11294;0;0;0;0;3;0;7280;0;0;0;0;4;0;10644;0;0;0;0;5;0;27246;2;0;0;0;0;0;6;0;20419;2;0;0;0;0;0;7;0;16273;0;0;0;0;8;0;16143;0;0;0;0;9;0;8815;0;0;0;0
16.02.20;18:05:00;1;257;16367;0;2;0;11294;0;0;0;0;3;0;7280;0;0;0;0;4;0;10644;0;0;0;0;5;0;27246;2;0;0;0;0;0;6;0;20419;2;0;0;0;0;0;7;0;16273;0;0;0;0;8;0;16143;0;0;0;0;9;0;8815;0;0;0;0
16.02.20;18:00:00;1;258;16346;0;2;0;11294;0;0;0;0;3;0;7280;0;0;0;0;4;0;10644;0;0;0;0;5;0;27246;2;0;0;0;0;0;6;0;20419;2;0;0;0;0;0;7;0;16273;0;0;0;0;8;0;16143;0;0;0;0;9;0;8815;0;0;0;0
16.02.20;17:55:00;1;258;16324;0;2;0;11294;0;0;0;0;3;0;7280;0;0;0;0;4;0;10644;0;0;0;0;5;0;27246;2;0;0;0;0;0;6;0;20419;2;0;0;0;0;0;7;0;16273;0;0;0;0;8;0;16143;0;0;0;0;9;0;8815;0;0;0;0
16.02.20;17:50:00;1;258;16303;0;2;0;11294;0;0;0;0;3;0;7280;0;0;36;2;4;0;10644;0;0;0;0;5;0;27246;2;0;0;0;0;0;6;0;20419;2;0;0;0;0;0;7;0;16273;0;0;0;0;8;0;16143;0;0;0;0;9;0;8815;0;0;0;0
16.02.20;17:45:00;1;273;16281;0;2;0;11294;0;0;222;11;3;0;7280;6;0;294;16;4;0;10644;0;0;30;8;5;0;27246;2;0;0;0;0;0;6;0;20419;2;0;0;0;0;0;7;0;16273;0;0;0;0;8;0;16143;0;0;0;0;9;0;8815;0;0;0;0
16.02.20;17:40:00;1;373;16258;0;2;0;11294;6;0;318;14;3;0;7280;6;1;375;17;4;0;10644;2;0;100;16;5;0;27246;2;0;1;167;191;16;6;0;20419;1;3;0;42;69;9;7;0;16273;0;0;0;0;8;0;16143;0;0;0;0;9;0;8815;0;0;86;4
16.02.20;17:35:00;1;529;16229;0;2;0;11294;6;0;350;14;3;0;7280;6;2;410;17;4;0;10644;1;0;140;16;5;0;27246;23;0;0;371;381;25;6;0;20419;23;8;2;192;470;23;7;0;16273;6;0;282;18;8;0;16143;6;0;285;18;9;0;8815;6;0;303;13
16.02.20;17:30:00;1;364;16183;0;2;0;11294;6;0;385;14;3;0;7280;6;3;466;17;4;0;10644;1;0;200;17;5;9;27246;26;0;1;402;592;25;6;0;20419;23;6;3;273;546;24;7;0;16273;6;3;360;18;8;0;16143;6;0;390;18;9;0;8815;6;0;416;14
16.02.20;17:25:00;1;417;16153;0;2;0;11294;6;0;409;15;3;1;7280;6;6;493;17;4;3;10644;3;3;200;17;5;74;27245;4;8;10;376;595;26;6;0;20419;23;3;5;504;577;24;7;1;16273;6;4;429;18;8;1;16143;4;2;261;10;9;1;8815;6;2;477;14
16.02.20;17:20:00;1;396;16117;0;2;35;11294;4;55;386;15;3;7;7280;6;17;499;17;4;9;10644;3;9;200;17;5;85;27239;4;13;17;376;595;27;6;0;20419;1;7;1;478;582;25;7;1;16273;6;4;453;19;8;4;16142;3;8;435;18;9;3;8815;3;6;389;11
16.02.20;17:15:00;1;448;16085;0;2;24;11291;6;41;384;16;3;0;7279;6;0;541;17;4;11;10643;3;11;200;18;5;97;27232;4;23;26;376;595;27;6;20;20419;1;15;14;545;437;25;7;2;16272;6;12;433;19;8;5;16142;6;15;432;19;9;3;8815;6;9;363;11
16.02.20;17:10:00;1;521;16047;0;2;50;11289;4;83;358;16;3;8;7279;3;17;499;18;4;11;10642;3;12;199;18;5;124;27223;4;39;36;376;596;27;6;60;20417;4;29;15;455;215;26;7;2;16272;6;7;473;19;8;4;16141;6;8;472;19;9;1;8814;6;4;517;15
16.02.20;17:05:00;1;464;16002;0;2;67;11285;4;98;361;16;3;7;7278;6;13;523;18;4;17;10641;3;18;198;18;5;146;27213;4;50;50;376;595;27;6;72;20411;4;47;25;455;215;26;7;41;16272;4;70;353;20;8;22;16141;6;39;415;19;9;3;8814;6;7;522;15
16.02.20;17:00:00;1;497;15964;0;2;70;11279;4;102;355;16;3;6;7278;6;11;526;18;4;21;10639;3;22;198;18;5;165;27200;4;59;52;376;596;27;6;78;20405;4;47;25;455;215;26;7;46;16269;4;74;354;20;8;39;16139;4;75;364;19;9;3;8814;6;6;530;15
16.02.20;16:55:00;1;749;15922;0;2;80;11273;4;112;358;17;3;7;7277;6;13;526;19;4;36;10638;3;37;198;18;5;191;27186;4;76;66;376;596;27;6;92;20399;4;56;29;455;215;26;7;57;16265;4;86;365;20;8;49;16136;4;80;415;20;9;0;8814;6;0;560;15
16.02.20;16:50:00;1;3935;15839;0;2;104;11267;4;139;362;17;3;39;7277;6;64;502;19;4;56;10635;3;58;197;18;5;232;27170;4;99;86;376;596;27;6;111;20391;4;77;39;455;215;26;7;80;16260;4;115;404;20;8;76;16132;4;112;425;20;9;12;8814;3;22;522;16
16.02.20;16:45:00;1;3342;15513;0;2;121;11258;4;155;364;17;3;62;7273;4;103;496;19;4;71;10630;3;74;198;19;5;249;27151;4;107;93;376;596;27;6;123;20381;4;83;40;455;215;26;7;87;16253;4;132;455;20;8;88;16126;4;125;454;20;9;11;8813;6;15;545;16
16.02.20;16:40:00;1;3279;15237;0;2;98;11248;4;135;361;18;3;52;7268;4;90;432;19;4;49;10624;3;51;197;19;5;223;27130;4;96;82;376;596;27;6;108;20371;4;61;32;455;215;26;7;79;16246;4;116;400;21;8;78;16118;4;115;396;20;9;6;8811;6;10;545;16
16.02.20;16:35:00;1;3294;14962;0;2;105;11240;4;142;369;18;3;59;7264;4;95;435;20;4;63;10620;3;65;197;19;5;257;27111;4;110;98;376;596;27;6;125;20362;4;86;44;455;215;26;7;86;16239;4;124;403;21;8;90;16112;4;121;412;20;9;8;8811;6;14;542;17
16.02.20;16:30:00;1;3245;14687;0;2;142;11231;4;179;362;18;3;80;7259;4;120;470;20;4;98;10615;3;102;211;19;5;346;27090;4;164;140;382;596;27;6;186;20351;4;101;68;455;284;26;7;139;16232;4;168;412;21;8;130;16104;4;167;427;21;9;58;8810;6;84;487;17
16.02.20;16:25:00;1;3381;14416;0;2;194;11219;4;233;374;19;3;116;7252;4;153;478;20;4;151;10607;5;157;221;20;5;448;27060;4;211;185;391;616;27;6;316;20335;4;155;185;480;516;26;7;199;16221;4;229;428;21;8;191;16094;4;229;417;21;9;101;8806;4;136;493;18
16.02.20;16:20:00;1;660;14149;0;2;237;11203;4;278;376;19;3;142;7243;4;185;476;21;4;188;10594;5;196;225;20;5;516;27022;4;256;214;397;609;28;6;386;20308;4;180;192;578;552;26;7;253;16204;4;290;456;22;8;249;16077;4;289;458;21;9;115;8797;4;164;501;18
16.02.20;16:15:00;1;695;14084;0;2;254;11183;4;296;376;20;3;148;7231;4;185;436;21;4;199;10579;5;207;222;20;5;540;26979;4;265;224;401;625;28;6;403;20275;4;211;223;568;546;26;7;258;16183;4;305;460;22;8;264;16057;4;305;469;21;9;112;8788;4;139;393;15
16.02.20;16:10:00;1;480;14030;0;2;349;11162;4;395;394;20;3;211;7219;4;257;496;21;4;285;10562;5;297;227;21;5;726;26933;4;356;302;404;646;28;6;537;20241;4;283;293;576;549;27;7;375;16162;4;418;468;22;8;368;16035;4;410;475;22;9;195;8776;4;235;510;19
16.02.20;16:05:00;1;740;13985;0;2;570;11133;4;627;400;21;3;351;7201;4;405;499;22;4;478;10539;5;498;236;21;5;1088;26871;4;557;458;417;668;28;6;814;20195;4;422;432;582;560;27;7;638;16131;4;695;474;22;8;640;16004;4;695;470;22;9;336;8760;4;382;520;19
16.02.20;16:00:00;1;461;13907;0;2;553;11086;4;604;387;22;3;340;7172;4;393;492;22;4;469;10499;5;488;237;21;5;1089;26779;4;553;459;416;676;28;6;817;20127;4;419;422;581;563;27;7;638;16078;4;686;470;22;8;634;15951;4;690;471;22;9;339;8733;4;386;513;20
16.02.20;15:55:00;1;491;13868;0;2;617;11040;4;673;397;22;3;379;7144;4;432;493;22;4;508;10460;5;529;235;22;5;1163;26689;4;590;486;415;669;28;6;862;20059;4;435;446;581;555;27;7;714;16025;4;761;471;23;8;703;15898;4;756;467;22;9;369;8704;4;420;525;20
16.02.20;15:50:00;1;467;13827;0;2;1082;10988;4;1159;407;23;3;613;7112;4;679;547;23;4;809;10418;5;843;248;22;5;1765;26590;4;936;762;421;685;28;6;1335;19984;4;676;675;597;561;27;7;1288;15965;4;1356;477;23;8;1070;15840;4;1132;397;18;9;670;8673;4;731;530;21
16.02.20;15:45:00;1;442;13788;0;2;1433;10900;4;1519;403;24;3;778;7062;4;850;543;23;4;999;10351;5;1041;250;22;5;2247;26437;4;1205;972;419;692;28;6;1692;19870;4;905;886;591;571;27;7;1746;15860;4;1841;483;23;8;1726;15737;4;1811;473;22;9;916;8619;4;989;541;21
16.02.20;15:40:00;1;459;13751;0;2;2430;10780;4;2556;400;23;3;1041;6996;4;1125;549;23;4;1362;10267;5;1418;257;22;5;3580;26240;4;1942;1573;431;698;28;6;2686;19723;4;1369;1338;607;583;27;7;3097;15715;4;3241;495;22;8;3039;15594;4;3187;483;22;9;1639;8543;4;1738;530;21
16.02.20;15:35:00;1;491;13713;0;2;1512;10578;4;1599;400;23;3;814;6910;4;886;548;23;4;1070;10154;5;1115;248;22;5;2434;25941;4;1303;1058;434;689;28;6;1853;19497;4;952;928;601;573;27;7;1928;15459;4;2035;484;22;8;1922;15343;4;2022;483;22;9;1046;8407;4;1122;538;21
16.02.20;15:30:00;1;466;13671;0;2;1231;10449;4;1308;402;22;3;717;6841;4;784;547;23;4;936;10063;5;975;246;22;5;2097;25744;4;1108;905;424;690;28;6;1587;19347;4;811;802;596;567;27;7;1645;15291;4;1741;484;22;8;1641;15176;4;1731;480;22;9;882;8318;4;952;531;20
16.02.20;15:25:00;1;452;13632;0;2;942;10345;4;1013;405;22;3;586;6781;4;648;525;23;4;775;9985;5;808;242;22;5;1660;25575;4;857;709;418;673;28;6;1249;19218;4;655;657;584;558;27;7;1117;15153;4;1200;475;23;8;1118;15039;4;1185;477;22;9;585;8244;4;646;535;20
16.02.20;15:20:00;1;574;13594;0;2;1175;10266;4;1254;408;23;3;675;6732;4;742;538;23;4;932;9920;5;970;244;22;5;2031;25436;4;1068;873;428;680;28;6;1522;19113;4;768;747;591;568;27;7;1385;15060;4;1468;482;23;8;1358;14946;4;1434;478;22;9;719;8195;4;784;535;21
16.02.20;15:15:00;1;518;13547;0;2;1495;10169;4;1585;408;23;3;811;6676;4;885;554;23;4;1148;9843;5;1195;251;22;5;2487;25263;4;1326;1089;426;701;28;6;1873;18984;4;926;928;598;572;27;7;1731;14945;4;1823;482;23;8;1714;14833;4;1798;478;22;9;927;8135;4;1002;535;21
16.02.20;15:10:00;1;695;13496;0;2;1248;10044;4;1327;402;22;3;735;6608;4;805;541;23;4;1016;9747;5;1059;243;22;5;2217;25054;4;1179;953;426;695;28;6;1686;18826;4;865;849;592;571;27;7;1569;14801;4;1659;478;23;8;1559;14691;4;1647;487;22;9;853;8058;4;923;534;21
16.02.20;15:05:00;1;682;13440;0;2;1011;9938;4;1085;402;22;3;642;6546;4;703;513;23;4;869;9661;5;905;236;22;5;1901;24874;4;1005;819;420;676;28;6;1442;18688;4;756;735;592;564;27;7;1191;14668;4;1263;476;23;8;1191;14558;4;1254;480;22;9;381;7985;4;420;323;12
16.02.20;15:00:00;1;672;13383;0;2;1154;9853;4;1232;404;23;3;710;6493;4;776;522;23;4;963;9589;5;1003;242;23;5;2103;24714;4;1111;906;419;685;28;6;1602;18566;4;823;811;588;566;27;7;1426;14569;4;1497;485;23;8;1403;14459;4;1481;474;23;9;747;7933;4;814;531;21
16.02.20;14:55:00;1;601;13327;0;2;1319;9757;4;1401;406;23;3;795;6433;4;862;502;23;4;1080;9508;5;1124;243;23;5;2347;24535;4;1253;1029;421;685;29;6;1771;18431;4;896;887;590;577;27;7;1585;14450;4;1669;483;23;8;1573;14342;4;1648;485;23;9;837;7870;4;907;531;21
16.02.20;14:50:00;1;645;13277;0;2;1054;9649;4;1128;401;23;3;670;6368;4;734;512;23;4;923;9420;5;962;239;23;5;2049;24336;4;1081;892;419;679;29;6;1565;18281;4;807;810;593;563;27;7;1322;14319;4;1401;482;23;8;1321;14212;4;1386;475;23;9;710;7801;4;774;524;21
16.02.20;14:45:00;1;602;13222;0;2;1102;9560;4;1178;403;23;3;695;6312;4;762;519;23;4;962;9342;5;1002;238;23;5;2146;24169;4;1126;918;418;677;29;6;1612;18153;4;822;807;588;569;27;7;1296;14207;4;1362;480;23;8;1282;14102;4;1351;478;23;9;684;7742;4;749;525;21
16.02.20;14:40:00;1;585;13173;0;2;1291;9468;4;1372;404;23;3;821;6254;4;890;519;23;4;1118;9262;5;1164;244;23;5;2439;23988;4;1298;1057;422;685;29;6;1836;18017;4;937;927;588;564;27;7;1003;14100;4;1057;324;15;8;1524;13994;4;1607;479;23;9;819;7684;4;888;535;22
16.02.20;14:35:00;1;561;13127;0;2;1197;9362;4;1277;404;23;3;761;6185;4;829;517;23;4;1040;9169;5;1083;236;23;5;2283;23785;4;1210;998;414;693;29;6;1737;17863;4;899;885;589;566;27;7;1448;13975;4;1527;480;24;8;1160;13866;4;1224;386;18;9;778;7616;4;844;535;22
16.02.20;14:30:00;1;615;13079;0;2;1269;9261;4;1347;405;23;3;811;6122;4;880;516;23;4;1111;9082;5;1157;240;23;5;2409;23593;4;1277;1041;425;699;29;6;1831;17718;4;922;922;593;568;27;7;1577;13855;4;1660;482;24;8;1568;13747;4;1647;479;23;9;848;7551;4;919;530;22
16.02.20;14:25:00;1;569;13030;0;2;1112;9156;4;1185;400;23;3;703;6054;4;770;518;24;4;971;8990;5;1011;243;23;5;2157;23393;4;1148;925;422;691;29;6;1626;17566;4;819;809;590;565;27;7;1396;13723;4;1468;480;24;8;1385;13616;4;1466;478;23;9;751;7480;4;816;527;22